This is the latest recevied weather packets stored in our database for station/object W0WC. If no packets are shown the sender has not sent any weather packets the latest 1 day(s).
| Time | Temp. | Humidity | Pressure | Rain* | Wind** | Luminosity | Snow |
|---|---|---|---|---|---|---|---|
| 1778008854 | 11.11° C | 69% | 1009.5 hPa | 0 mm | 5.36 m/s, 2° | 123 W/m² | - |
| 1778008552 | 11.11° C | 69% | 1009.8 hPa | 0 mm | 4.47 m/s, 17° | 134 W/m² | - |
| 1778008249 | 11.11° C | 71% | 1009.6 hPa | 0 mm | 2.24 m/s, 57° | 141 W/m² | - |
| 1778007943 | 11.11° C | 70% | 1009.7 hPa | 0 mm | 5.36 m/s, 40° | 140 W/m² | - |
| 1778007640 | 11.11° C | 72% | 1009.7 hPa | 0 mm | 3.13 m/s, 332° | 154 W/m² | - |
| 1778007337 | 11.11° C | 74% | 1009.6 hPa | 0 mm | 2.68 m/s, 351° | 161 W/m² | - |
| 1778007033 | 10.56° C | 74% | 1009.7 hPa | 0 mm | 3.58 m/s, 10° | 162 W/m² | - |
| 1778006730 | 11.11° C | 76% | 1009.8 hPa | 0 mm | 1.34 m/s, 46° | 121 W/m² | - |
| 1778006427 | 10.56° C | 76% | 1009.5 hPa | 0 mm | 4.02 m/s, 27° | 141 W/m² | - |
| 1778006124 | 11.11° C | 76% | 1009.8 hPa | 0 mm | 6.71 m/s, 1° | 99 W/m² | - |
| 1778005821 | 11.11° C | 76% | 1009.8 hPa | 0 mm | 5.36 m/s, 348° | 117 W/m² | - |
| 1778005517 | 11.11° C | 76% | 1009.7 hPa | 0 mm | 4.92 m/s, 31° | 113 W/m² | - |
| 1778005214 | 11.11° C | 77% | 1009.8 hPa | 0 mm | 3.13 m/s, 14° | 107 W/m² | - |
| 1778004911 | 11.11° C | 78% | 1009.6 hPa | 0 mm | 3.13 m/s, 4° | 84 W/m² | - |
| 1778004608 | 11.11° C | 79% | 1009.6 hPa | 0 mm | 2.24 m/s, 16° | 103 W/m² | - |
| 1778004304 | 11.11° C | 80% | 1009.4 hPa | 0 mm | 3.13 m/s, 0° | 98 W/m² | - |
| 1778004001 | 11.11° C | 80% | 1009.5 hPa | 0 mm | 1.79 m/s, 13° | 94 W/m² | - |
| 1778003697 | 11.11° C | 79% | 1009.5 hPa | 0 mm | 2.24 m/s, 23° | 71 W/m² | - |
| 1778003394 | 11.67° C | 79% | 1009.5 hPa | 0 mm | 3.13 m/s, 34° | 81 W/m² | - |
| 1778003091 | 11.67° C | 79% | 1009.3 hPa | 0 mm | 2.68 m/s, 356° | 79 W/m² | - |
| 1778002787 | 11.67° C | 78% | 1009.2 hPa | 0 mm | 4.92 m/s, 69° | 88 W/m² | - |
| 1778002483 | 11.67° C | 79% | 1009.4 hPa | 0 mm | 3.13 m/s, 23° | 98 W/m² | - |
| 1778002180 | 11.67° C | 79% | 1009 hPa | 0 mm | 1.79 m/s, 76° | 74 W/m² | - |
| 1778001879 | 11.67° C | 80% | 1008.9 hPa | 0 mm | 2.68 m/s, 90° | 86 W/m² | - |
| 1778001578 | 11.67° C | 80% | 1008.9 hPa | 0 mm | 2.24 m/s, 14° | 113 W/m² | - |
* Rain latest hour (hover to see other rain measurements)
** Current wind speed in m/s (hover to see current wind gust speed)